Location: Berlin
(52.5170°N, 13.4000°E)
Time: 06:16:02
(UTC+02:00)

ISS - Pass Details

Date: 17 July 2018
Orbit: 402 x 408 km, 51.6° (Epoch: 21 July)

Event Time Altitude Azimuth Distance (km) Brightness Sun altitude
Exits shadow 03:13:52 - 273° (W) 2,305 -0.3 -11.7°
Reaches altitude 10° 03:15:54 10° 271° (W) 1,471 -1.3 -11.5°
Maximum altitude 03:19:11 74° 187° (S) 429 -3.9 -11.3°
Drops below altitude 10° 03:22:29 10° 102° (ESE) 1,472 -0.7 -11.0°
Sets 03:24:34 0° 100° (E) 2,333 0.3 -10.9°
